Regional Weather Roundup
Issued by NWS Charleston, WV

Home | Current Version | Previous Version | Text Only | Print | Product List | Glossary Off
Versions: 1 2 3 4 5 6 7 8 9 10 11 12 13 14 15 16 17 18 19 20 21 22 23 24 25 26 27 28 29 30 31 32 33 34 35 36 37 38 39 40 41 42 43 44 45 46 47 48 49 50

000
ASUS41 KRLX 040310
RWRRLX
West Virginia Regional Weather Roundup
National Weather Service Charleston WV
1000 PM EST SAT DEC 03 2016

Note: "fair" indicates few or no clouds below 12,000 feet with no
significant weather and/or obstructions to visibility.

WVZ003-040400-
Northern Panhandle of West Virginia

CITY           SKY/WX    TMP DP  RH WIND       PRES   REMARKS
WHEELING       CLOUDY    34  24  67 SW5       30.29S
$$

WVZ009-040400-
Northwest West Virginia

CITY           SKY/WX    TMP DP  RH WIND       PRES   REMARKS
PARKERSBURG    CLOUDY    36  30  79 CALM      30.33F
$$

WVZ006-040400-
Western West Virginia

CITY           SKY/WX    TMP DP  RH WIND       PRES   REMARKS
HUNTINGTON     CLOUDY    37  28  70 E3        30.29F
$$

WVZ015-040400-
West Central West Virginia

CITY           SKY/WX    TMP DP  RH WIND       PRES   REMARKS
CHARLESTON     MOCLDY    34  28  79 CALM      30.29F
$$

WVZ022-031-040400-
North Central West Virginia

CITY           SKY/WX    TMP DP  RH WIND       PRES   REMARKS
CLARKSBURG     CLOUDY    36  27  69 NW3       30.30S
MORGANTOWN     CLOUDY    37  26  64 CALM      30.30S
$$

WVZ025-035-042-045-040400-
Southern West Virginia

CITY           SKY/WX    TMP DP  RH WIND       PRES   REMARKS
BECKLEY        CLOUDY    31  25  78 CALM      30.25R
LOGAN            N/A     36  27  69 CALM      30.27F
BLUEFIELD      CLOUDY    30  23  75 CALM      30.25R
LEWISBURG      CLOUDY    29  25  84 CALM      30.25R
$$

WVZ047-040400-
Northern Mountains of West Virginia

CITY           SKY/WX    TMP DP  RH WIND       PRES   REMARKS
ELKINS         CLOUDY    33  26  75 CALM      30.27F
$$

WVZ052-040400-
Eastern Panhandle of West Virginia

CITY           SKY/WX    TMP DP  RH WIND       PRES   REMARKS
MARTINSBURG    CLOUDY    39  27  62 W8        30.28R
PETERSBURG     CLOUDY    34  29  84 CALM      30.30S
$$



USA.gov is the U.S. government's official web portal to all federal, state and local government web resources and services.